Location: Stony Plain
(53.5279°N, 114.0019°W)
Time: 02:37:26
(UTC-06:00)

N. Korean satellite - Visible Passes

Search period start: 14 October 2019 00:00
Search period end: 24 October 2019 00:00
Orbit: 455 x 508 km, 97.2° (Epoch: 13 October)

Date Brightness Start Highest point End Pass type
(mag) Time Alt. Az. Time Alt. Az. Time Alt. Az.
14 Oct 10.3 19:54:12 10° WSW 19:55:37 12° W 19:57:02 10° WNW visible
15 Oct 8.5 07:11:43 10° NNE 07:15:02 35° E 07:18:22 10° SSE visible
15 Oct 9.6 19:27:23 10° SW 19:30:05 21° W 19:32:48 10° NW visible
16 Oct 9.6 06:46:52 10° NE 06:49:35 20° E 06:52:19 10° SE visible
17 Oct 10.3 06:22:44 10° ENE 06:24:03 12° E 06:25:22 10° ESE visible
18 Oct 7.5 07:29:05 10° NNE 07:32:36 56° E 07:36:11 10° S visible
18 Oct 10.1 19:45:46 10° SW 19:47:44 14° W 19:49:43 10° NW visible
19 Oct 8.8 07:04:00 10° NNE 07:07:13 30° E 07:10:27 10° SSE visible
19 Oct 9.2 19:19:18 10° SSW 19:22:13 25° W 19:25:09 10° NW visible
20 Oct 9.9 06:39:14 10° NE 06:41:44 17° E 06:44:13 10° SE visible
22 Oct 7.9 07:21:16 10° NNE 07:24:46 46° E 07:28:19 10° S visible
22 Oct 9.9 19:37:27 10° SW 19:39:48 17° W 19:42:12 10° NW visible
23 Oct 9.2 06:56:15 10° NE 06:59:21 26° E 07:02:28 10° SSE visible
23 Oct 8.8 19:11:13 10° SSW 19:14:18 30° W 19:17:27 10° NNW visible
